Location: Montr�al
(45.5000°N, 73.5830°W)
Time: 21:04:00
(UTC-04:00)

ISS - All Passes

Search period start: 23 July 2016 00:00
Search period end: 02 August 2016 00:00
Orbit: 401 x 404 km, 51.6° (Epoch: 23 July)

Date Brightness Start Highest point End Pass type
(mag) Time Alt. Az. Time Alt. Az. Time Alt. Az.
23 Jul - 01:02:53 10° W 01:06:01 43° NNW 01:09:10 10° NE visible
23 Jul - 02:40:09 10° WNW 02:42:58 26° N 02:45:48 10° ENE visible
23 Jul - 04:16:44 10° NW 04:19:55 46° NNE 04:23:04 10° E visible
23 Jul - 05:53:18 10° WNW 05:56:17 33° SW 05:59:15 10° SSE daylight
23 Jul - 22:34:19 10° S 22:36:51 21° SE 22:39:24 10° E night (unlit)
24 Jul - 00:09:47 10° WSW 00:13:02 64° NNW 00:16:16 10° ENE visible
24 Jul - 01:47:00 10° WNW 01:49:52 27° N 01:52:44 10° NE visible
24 Jul - 03:23:51 10° NW 03:26:53 34° NNE 03:29:54 10° E visible
24 Jul - 05:00:14 10° WNW 05:03:27 60° SW 05:06:41 10° SE daylight
24 Jul - 21:42:53 10° SSE 21:44:10 12° SE 21:45:26 10° ESE night (unlit)
24 Jul - 23:16:51 10° SW 23:20:06 78° SSE 23:23:22 10° ENE visible
25 Jul - 00:53:49 10° WNW 00:56:46 31° NNW 00:59:45 10° NE visible
25 Jul - 02:30:53 10° NW 02:33:48 29° N 02:36:42 10° ENE visible
25 Jul - 04:07:18 10° WNW 04:10:34 80° NNE 04:13:50 10° ESE visible
25 Jul - 05:44:30 10° W 05:46:38 16° SW 05:48:46 10° S daylight
25 Jul - 22:24:08 10° SW 22:27:14 43° SE 22:30:22 10° ENE visible
26 Jul - 00:00:37 10° W 00:03:43 39° NNW 00:06:49 10° NE visible
26 Jul - 01:37:51 10° WNW 01:40:41 26° N 01:43:31 10° ENE visible
26 Jul - 03:14:24 10° NW 03:17:36 51° NNE 03:20:48 10° E visible
26 Jul - 04:51:02 10° WNW 04:53:55 28° SW 04:56:46 10° SSE visible
26 Jul - 21:31:45 10° SSW 21:34:28 24° SE 21:37:11 10° E visible
26 Jul - 23:07:29 10° WSW 23:10:42 57° NNW 23:13:55 10° ENE visible
27 Jul - 00:44:44 10° WNW 00:47:35 27° N 00:50:25 10° ENE visible
27 Jul - 02:21:30 10° NW 02:24:34 37° NNE 02:27:38 10° E visible
27 Jul - 03:57:56 10° WNW 04:01:06 51° SW 04:04:16 10° SE visible
27 Jul - 20:39:57 10° SSE 20:41:45 14° SE 20:43:32 10° E daylight
27 Jul - 22:14:29 10° WSW 22:17:45 90° SSE 22:21:01 10° ENE visible
27 Jul - 23:51:32 10° WNW 23:54:28 30° N 23:57:24 10° NE visible
28 Jul - 01:28:34 10° NW 01:31:30 30° N 01:34:26 10° ENE visible
28 Jul - 03:04:57 10° WNW 03:08:13 89° SSW 03:11:28 10° ESE visible
28 Jul - 04:42:27 10° W 04:44:13 14° SW 04:45:59 10° SSW visible
28 Jul - 21:21:42 10° SW 21:24:52 51° SE 21:28:03 10° ENE visible
28 Jul - 22:58:20 10° W 23:01:24 36° NNW 23:04:28 10° NE visible
29 Jul - 00:35:33 10° WNW 00:38:23 27° N 00:41:15 10° ENE visible
29 Jul - 02:12:02 10° WNW 02:15:16 57° NNE 02:18:29 10° ESE visible
29 Jul - 03:48:47 10° W 03:51:30 24° SW 03:54:13 10° SSE night (unlit)
29 Jul - 20:29:11 10° SSW 20:32:03 29° SE 20:34:55 10° ENE daylight
29 Jul - 22:05:11 10° W 22:08:22 51° NNW 22:11:34 10° NE visible
29 Jul - 23:42:26 10° WNW 23:45:17 26° N 23:48:06 10° ENE visible
30 Jul - 01:19:08 10° NW 01:22:15 40° NNE 01:25:21 10° E visible
30 Jul - 02:55:35 10° WNW 02:58:43 43° SW 03:01:49 10° SE night (unlit)
30 Jul - 19:37:11 10° S 19:39:19 16° SE 19:41:28 10° E daylight
30 Jul - 21:12:08 10° WSW 21:15:23 79° NNW 21:18:40 10° ENE visible
30 Jul - 22:49:15 10° WNW 22:52:09 29° N 22:55:04 10° NE visible
31 Jul - 00:26:12 10° NW 00:29:11 31° NNE 00:32:09 10° ENE visible
31 Jul - 02:02:35 10° WNW 02:05:51 77° SSW 02:09:06 10° SE visible
31 Jul - 03:40:32 10° WSW 03:41:47 12° SW 03:43:02 10° SSW night (unlit)
31 Jul - 20:19:16 10° SW 20:22:29 61° SSE 20:25:43 10° ENE daylight
31 Jul - 21:56:02 10° W 21:59:04 34° NNW 22:02:05 10° NE visible
31 Jul - 23:33:12 10° NW 23:36:05 27° N 23:38:56 10° ENE visible
01 Aug - 01:09:39 10° WNW 01:12:55 65° NNE 01:16:08 10° ESE visible
01 Aug - 02:46:34 10° W 02:49:05 21° SW 02:51:37 10° S night (unlit)
01 Aug - 19:26:40 10° SSW 19:29:38 33° SE 19:32:38 10° ENE daylight
01 Aug - 21:02:51 10° W 21:06:01 46° NNW 21:09:11 10° NE visible
01 Aug - 22:40:07 10° WNW 22:42:57 26° N 22:45:47 10° ENE visible
